669 visiteurs
Prévisions de votre ville :
Vigilance : 19 départements Mise à jour le 11/11/2019 à 16:09 - Voir la carte

Paris Roissy CDG (95380) le 11/11/2019 à 23:30 Choisir station

5°C 87 % O Vit. moyenne 15 kmh/h

Relevés météo quotidiens pour la station de :

UTC
S: Synop
M: Metar
Loc T°C
(°C)
Td
(°C)
HR
(%)
Vis
(km)
Néb
(octa)
Vent
(km/h)
Pression
(mb)
Précipitations
(mm)
Temps
              MOY
10 min
DIR RAF 1h MESURE VAR SUR 3h    
S 00 h 02h 27.2 14.6 46 - 46 74 1008.7 -1.2/3h 0.0/6h - 0.0/3h -
S 01 h 03h 27.4 14.8 46 - 24 41 1007.9 -1.9/3h 0.0/1h -
S 02 h 04h 27.3 14.7 46 - 41 70 1008.0 -1.0/3h 0.0/1h -
S 03 h 05h 27.4 14.4 45 - 43 69 1007.6 -1.0/3h 0.0/3h -
S 04 h 06h 27.3 13.6 43 - 39 81 1007.5 -0.4/3h 0.0/1h -
S 05 h 07h 27.7 12.9 40 - 24 43 1006.7 -1.3/3h 0.0/1h -
S 06 h 08h 28.4 10.6 33 20 0/8 43 81 1007.2 -0.4/3h 0.0/12h - 0.0/3h - 0.0/24h
S 07 h 09h 27.1 17.0 54 - 37 65 1007.5 0.0/3h 0.0/1h -
S 08 h 10h 27.2 16.8 53 - 39 67 1007.4 +0.7/3h 0.0/1h -
S 09 h 11h 27.3 16.6 52 18 3/8 20 35 1007.8 +0.6/3h 0.0/3h
S 10 h 12h 27.9 17.7 54 - 39 61 1007.9 +0.4/3h 0.0/1h -
S 11 h 13h 27.5 18.8 59 - 33 59 1008.3 +0.9/3h 0.0/1h -
S 12 h 14h 27.4 18.4 58 - 30 52 1008.3 +0.5/3h 0.0/6h - 0.0/3h -
S 13 h 15h 27.8 19.8 62 - 28 46 1008.3 +0.4/3h 0.0/1h -
S 14 h 16h 27.9 19.9 62 - 11 20 1008.3 0.0/3h 0.0/1h -
S 15 h 17h 27.6 20.7 66 - 24 35 1008.1 -0.2/3h 0.0/3h -
S 16 h 18h 27.7 21.3 68 - 19 33 1008.0 -0.3/3h 0.0/1h -
S 17 h 19h 27.7 21.7 70 - 7 26 1008.3 0.0/3h 0.0/1h -
S 18 h 20h 26.0 20.3 71 20 0/8 6 15 1008.4 +0.2/3h 0.0/12h - 0.0/3h
S 19 h 21h 25.3 21.0 77 - 2 9 1008.8 +0.7/3h 0.0/1h -
S 20 h 22h 24.9 19.9 74 - 6 9 1009.3 +0.8/3h 0.0/1h -
S 21 h 23h 24.2 21.5 85 - 6 6 1009.9 +1.4/3h 0.0/3h -
S 22 h 00h 23.7 21.2 86 - 6 9 1010.5 +1.6/3h 0.0/1h -
S 23 h 01h 23.7 20.8 84 - 11 19 1010.2 +0.9/3h 0.0/1h -
evolution des temperatures
cumul des precipitations
vent moyen et rafales
pression atmospherique

Un tiret (-) signifie que les données ne sont pas disponibles.

Passez la souris sur les pictos temps pour avoir plus de précisions. Passez les flèches sur l'icône de la direction du vent pour voir la direction précise en degrés.

Les données de l'heure en cours sont disponibles à partir de H+15 minutes.


S signifie station Synop, plus complète qu'une station Metar (M). Il y a +1h de différence entre l'heure UTC et l'heure légale en hiver et +2h en été.

Td est la mesure du point de rosée.

HR est l'humidité relative/p>

Vis est la visibilité

Néb est la nébulosité du ciel (couverture nuageuse) exprimée en octas (de 0/8 à 8/8).

Vent moy 10 min donne le vent moyen sur les 10 minutes qui précèdent le relevé.

Vent raf 1h donne la rafale maximale mesurée dans l'heure qui précède le relevé.


Les données les plus anciennes remontent à avril 2014.

Les données présentées sur cette page proviennent des stations météo officielles. Les relevés sont effectués aux normes en vigueur (anémomètre à 10m de haut, thermomètre sous abri normalisé à 2m du sol...)

Météo 60 décline toute responsabilité en cas d'absence de données, d'erreurs, de mauvaise utilisation ou interprétation et n'est pas habilité à fournir des certificats intempéries.